This demonstration page uses our WeatherBlox Daily Observations layout. Learn more.

Left ArrowRight Arrow

41.86663, -103.66717

Hourly Observations for March 4, 2016

Temp ( °F °C ) Dew Point ( °F °C ) Humidity (%) Winds ( mph kmh ) Pressure ( in mb ) Visibility ( mi km ) Precip ( " mm )
12:53 am 00:53 Clear 34 1.1 22 -5.6 61 61 N 6 9 29.91 1013 10 16 N/A
1:53 am 01:53 Clear 34 1.1 22 -5.6 61 61 N 7 11 29.88 1012 10 16 N/A
2:53 am 02:53 Clear 33 0.6 21 -6.1 61 61 N 9 15 29.89 1012 10 16 N/A
3:53 am 03:53 Clear 36 2.2 20 -6.7 52 52 WNW 5 7 29.88 1012 10 16 N/A
4:53 am 04:53 Clear 36 2.2 20 -6.7 52 52 NW 7 11 29.90 1012 10 16 N/A
5:53 am 05:53 Clear 36 2.2 20 -6.7 52 52 NW 3 6 29.96 1015 10 16 N/A
6:53 am 06:53 Sunny 34 1.1 23 -5 64 64 WNW 9 15 30.03 1017 10 16 N/A
7:53 am 07:53 Mostly Sunny 48 8.9 29 -1.7 48 48 NW 14 22 30.07 1018 10 16 N/A
8:53 am 08:53 Sunny 53 11.7 28 -2.2 38 38 NNW 13 20 30.06 1018 10 16 N/A
9:53 am 09:53 Sunny 56 13.3 24 -4.4 29 29 NNW 18 30 30.08 1019 10 16 N/A
10:53 am 10:53 Sunny 58 14.4 24 -4.4 27 27 NNW 17 28 30.10 1019 10 16 N/A
11:53 am 11:53 Sunny 59 15 23 -5 25 25 NNW 17 28 30.11 1020 10 16 N/A
12:53 pm 12:53 Sunny 60 15.6 20 -6.7 21 21 NNW 23 37 30.09 1019 10 16 N/A
1:53 pm 13:53 Sunny 61 16.1 18 -7.8 19 19 NW 15 24 30.07 1018 10 16 N/A
2:53 pm 14:53 Sunny 63 17.2 16 -8.9 16 16 NW 13 20 30.07 1018 10 16 N/A
3:53 pm 15:53 Sunny 62 16.7 13 -10.6 14 14 NW 10 17 30.06 1018 10 16 N/A
4:53 pm 16:53 Sunny 60 15.6 11 -11.7 14 14 NNW 8 13 30.07 1018 10 16 N/A
5:53 pm 17:53 Clear 49 9.4 14 -10 25 25 NE 10 17 30.11 1020 10 16 N/A
6:53 pm 18:53 Clear 43 6.1 16 -8.9 34 34 NE 8 13 30.15 1021 10 16 N/A
7:53 pm 19:53 Clear 37 2.8 17 -8.3 44 44 VRB 3 6 30.15 1021 10 16 N/A
8:53 pm 20:53 Clear 38 3.3 17 -8.3 43 43 N N/A 30.16 1021 10 16 N/A
9:53 pm 21:53 Clear 32 undefined 16 -8.9 52 52 NE 8 13 30.17 1022 10 16 N/A
10:53 pm 22:53 Clear 32 undefined 17 -8.3 54 54 NNE 3 6 30.18 1022 10 16 N/A
11:53 pm 23:53 Clear 27 -2.8 17 -8.3 66 66 NNE 8 13 30.18 1022 10 16 N/A

Powered by AerisWeather